Preview of NWS' New Version of Forecast
This preview is not operational and should not be used for support decisions.

Regional Weather Roundup (RWR)

Issued by National Weather Service (NWS)

                            
000
ASUS44 KMEG 220010
RWRTN 
TENNESSEE HOURLY STATE WEATHER ROUNDUP
NATIONAL WEATHER SERVICE MEMPHIS TN
700 PM CDT SAT SEP 21 2019

TNZ002-004-019-021-049-052-054-088>092-220100-
WEST TENNESSEE
  
CITY           SKY/WX    TMP DP  RH WIND       PRES   REMARKS
MEMPHIS INTL   FAIR      84  59  42 S7        30.11S                  
NWS MEMPHIS      N/A     84 N/A N/A MISG        N/A                   
JACKSON        FAIR      81  60  48 SE5       30.13S                  
DYERSBURG      FAIR      82  61  48 CALM      30.11F                  
SOMERVILLE     CLEAR     82  59  44 CALM      30.11S                  
COVINGTON      PTCLDY    82  61  47 CALM      30.10S                  
UNION CITY     CLEAR     79  61  53 SE5       30.10S                  
BOLIVAR        CLEAR     81  59  47 CALM      30.12S                  
PARIS          CLEAR     79  57  47 S6        30.13S                  
HUNTINGDON     CLEAR     81  61  50 CALM      30.13S                  
LEXINGTON      CLEAR     79  61  53 CALM      30.13S                  
SELMER         CLEAR     79  63  57 CALM      30.13F                  
SAVANNAH       CLEAR     73  68  83 CALM      30.13F                  
$$

TNZ008-025-027-028-033-062-065-066-220100-
NORTH MIDDLE TENNESSEE
  
CITY           SKY/WX    TMP DP  RH WIND       PRES   REMARKS
NASHVILLE      FAIR      82  52  35 S3        30.16S                  
DICKSON        CLEAR     81  54  39 CALM      30.15S                  
PORTLAND       CLEAR     75  59  57 CALM      30.15S                  
CLARKSVILLE    FAIR      82  56  40 S3        30.13S                  
LEBANON        CLEAR     79  54  41 SW5       30.14S                  
SMYRNA         FAIR      78  58  49 CALM      30.17S                  
MURFREESBORO   CLEAR     81  54  39 S5        30.14S                  
COOKEVILLE     CLEAR     72  57  60 CALM      30.18S                  
LIVINGSTON     CLEAR     79  54  41 CALM      30.20R                  
CROSSVILLE     FAIR      73  57  57 CALM      30.25S                  
ROCKWOOD       CLEAR     73  57  56 CALM      30.22S                  
$$

TNZ061-075-076-078-094-096-097-220100-
SOUTH MIDDLE TENNESSEE
  
CITY           SKY/WX    TMP DP  RH WIND       PRES   REMARKS
LAWRENCEBURG   CLEAR     77  55  47 CALM      30.17S                  
LEWISBURG      CLEAR     75  55  50 CALM      30.16S                  
FAYETTEVILLE   CLEAR     81  52  36 CALM      30.17S                  
TULLAHOMA      CLEAR     75  59  57 CALM      30.17F                  
WINCHESTER     CLEAR     79  54  41 CALM      30.17F                  
MCMINNVILLE    CLEAR     77  55  47 CALM      30.18S                  
COLUMBIA       CLEAR     79  55  44 SE3       30.14S                  
SHELBYVILLE    CLEAR     79  57  47 CALM      30.17S                  
$$

TNZ017-018-042-046-047-220100-
NORTHEAST TENNESSEE
  
CITY           SKY/WX    TMP DP  RH WIND       PRES   REMARKS
TRI CITIES     FAIR      74  60  61 N3        30.22S                  
ELIZABETHTON   FAIR      73  61  64 CALM      30.22S                  
GREENEVILLE    CLEAR     77  59  53 CALM      30.22S                  
$$

TNZ012-013-036-069-073-074-220100-
CENTRAL EAST TENNESSEE
  
CITY           SKY/WX    TMP DP  RH WIND       PRES   REMARKS
KNOXVILLE      FAIR      81  58  45 NW5       30.18S                  
OAK RIDGE      FAIR      80  59  48 CALM      30.20S                  
DOWNTOWN KNOXV CLEAR     75  66  73 CALM      30.18F                  
GATLINBURG     MOCLDY    81  59  47 CALM      30.18S                  
MORRISTOWN     CLEAR     79  59  50 CALM      30.20S                  
JACKSBORO      CLEAR     75  61  60 CALM      30.23S                  
$$

TNZ083-085-099-220100-
SOUTHEAST TENNESSEE
  
CITY           SKY/WX    TMP DP  RH WIND       PRES   REMARKS
CHATTANOOGA    FAIR      84  56  38 CALM      30.18S                  
$$

SKY/WX REPORTED AS FAIR MEANS FEW OR NO CLOUDS BELOW
12 THOUSAND FEET.